Retour au catalogue

SL-12 R/B(2)

ActifMEO
NORAD 25598·ROCKET BODY·🇷🇺 Russia

Lancé Dec 30, 1998 depuis Baikonur Cosmodrome

Loading…

Prochains Passages (prochaines 24 heures)

TLE

FraisSource: Space-Track

Époque: Sep 13, 2026, 11:03 UTC

1 25598U 98077F   26256.46075209 -.00000031  00000-0  00000-0 0  9999
2 25598  64.4187  55.9587 0012269 258.0484 104.1798  2.13406838215879

Suivez SL-12 R/B(2) en temps réel avec AllMySat

Download on the App Store